Tulsa, OK

7:53 PM CDT on July 27, 2017 (GMT -0500)
Tulsa International

Weather History for KTUL - July, 2013

Change the Weather History Date:

Tuesday, July 30, 2013

  Actual Average Record
Temperature  
Mean Temperature 81 °F 84 °F  
Max Temperature 90 °F 94 °F 110 °F (1986)
Min Temperature 72 °F 73 °F 55 °F (1971)
Cooling Degree Days 16 19  
Month to date cooling degree days 489 537  
Year to date cooling degree days 1112 1150  
Since 1 June cooling degree days 920 916  
Growing Degree Days 31 (Base 50)    
Moisture  
Dew Point 73 °F    
Average Humidity 78    
Maximum Humidity 100    
Minimum Humidity 56    
Precipitation  
Precipitation 0.50 in 0.09 in 3.78 in (1981)
Month to date precipitation 4.93 3.26  
Year to date precipitation 20.50 24.48  
Sea Level Pressure  
Sea Level Pressure 29.97 in    
Wind  
Wind Speed 4 mph (SSW)    
Max Wind Speed 18 mph    
Max Gust Speed 27 mph    
Visibility 9 miles    
Events Rain , Thunderstorm    
T = Trace of Precipitation, MM = Missing Value Source: NWS Daily Summary

Daily Weather History Graph

Daily Weather History Graph

Search for Another Location

Airport or City:

Trip Planner

Search our weather history database for the weather conditions in past years. The results will help you decide how hot, cold, wet, or windy it might be!

Date:

Astronomy

Jul. 30, 2013 Rise Set
Actual Time 6:29 AM CDT 8:30 PM CDT
Civil Twilight 6:00 AM CDT 8:58 PM CDT
Nautical Twilight 5:25 AM CDT 9:33 PM CDT
Astronomical Twilight 4:48 AM CDT 10:10 PM CDT
Moon 12:46 AM CDT (7/30) 2:52 PM CDT (7/30)
Length of Visible Light 14h 58m
Length of Day
14h 01m
Last Quarter, 41% of the Moon is Illuminated
Jul 30
Last Quarter
Aug 6
New
Aug 14
First Quarter
Aug 20
Full
Aug 28
Last Quarter

Hourly Weather History & Observations

Time (CDT) Temp. Heat Index Dew Point Humidity Pressure Visibility Wind Dir Wind Speed Gust Speed Precip Events Conditions
12:27 AM 78.1 °F - 75.0 °F 90% 29.98 in 5.0 mi West 13.8 mph - 0.03 in Rain , Thunderstorm Thunderstorms and Rain
12:33 AM 77.0 °F - 73.9 °F 90% 29.99 in 1.0 mi West 16.1 mph - 0.04 in Rain , Thunderstorm Heavy Thunderstorms and Rain
12:45 AM 73.0 °F - 73.0 °F 100% 29.99 in 3.0 mi West 17.3 mph 34.5 mph 0.46 in Rain , Thunderstorm Heavy Thunderstorms and Rain
12:53 AM 73.9 °F - 73.0 °F 97% 29.97 in 3.0 mi SW 12.7 mph 23.0 mph 0.59 in Rain , Thunderstorm Heavy Thunderstorms and Rain
1:53 AM 73.9 °F - 73.0 °F 97% 29.98 in 6.0 mi South 9.2 mph - 0.48 in Rain , Thunderstorm Light Thunderstorms and Rain
2:53 AM 73.9 °F - 73.0 °F 97% 29.96 in 10.0 mi South 5.8 mph - 0.10 in Rain , Thunderstorm Light Thunderstorms and Rain
3:38 AM 72.0 °F - 71.1 °F 97% 29.95 in 10.0 mi South 8.1 mph - 0.03 in Rain Light Rain
3:53 AM 72.0 °F - 71.1 °F 97% 29.94 in 10.0 mi SSW 4.6 mph - 0.04 in Rain Light Rain
4:53 AM 73.0 °F - 73.0 °F 100% 29.95 in 10.0 mi SSW 3.5 mph - 0.01 in   Overcast
5:53 AM 73.0 °F - 73.0 °F 100% 29.95 in 10.0 mi Calm Calm - N/A   Overcast
6:53 AM 72.0 °F - 72.0 °F 100% 29.96 in 10.0 mi East 4.6 mph - N/A   Overcast
7:53 AM 73.9 °F - 71.1 °F 91% 29.99 in 10.0 mi Calm Calm - N/A   Overcast
8:53 AM 75.0 °F - 72.0 °F 90% 30.00 in 10.0 mi East 3.5 mph - N/A   Overcast
9:23 AM 75.9 °F - 72.0 °F 87% 30.03 in 10.0 mi South 5.8 mph - N/A   Mostly Cloudy
9:44 AM 77.0 °F - 72.0 °F 84% 30.03 in 10.0 mi South 4.6 mph - N/A   Overcast
9:53 AM 77.0 °F - 72.0 °F 84% 30.00 in 10.0 mi Variable 3.5 mph - N/A   Overcast
10:53 AM 81.0 °F 85.2 °F 72.0 °F 74% 30.00 in 10.0 mi South 5.8 mph - N/A   Mostly Cloudy
11:53 AM 82.9 °F 88.0 °F 72.0 °F 69% 30.00 in 10.0 mi SSW 5.8 mph - N/A   Mostly Cloudy
12:53 PM 84.0 °F 89.6 °F 72.0 °F 67% 30.00 in 10.0 mi Calm Calm - N/A   Overcast
1:53 PM 86.0 °F 93.0 °F 73.0 °F 65% 29.98 in 10.0 mi Calm Calm - N/A   Mostly Cloudy
2:53 PM 87.1 °F 93.6 °F 72.0 °F 61% 29.96 in 10.0 mi West 3.5 mph - N/A   Mostly Cloudy
3:53 PM 89.1 °F 96.0 °F 72.0 °F 57% 29.96 in 10.0 mi West 5.8 mph - N/A   Mostly Cloudy
4:53 PM 88.0 °F 95.6 °F 73.0 °F 61% 29.95 in 10.0 mi WNW 6.9 mph - N/A   Mostly Cloudy
5:53 PM 89.1 °F 97.0 °F 73.0 °F 59% 29.95 in 10.0 mi Calm Calm - N/A   Mostly Cloudy
6:53 PM 89.1 °F 97.0 °F 73.0 °F 59% 29.94 in 10.0 mi North 5.8 mph - N/A   Mostly Cloudy
7:53 PM 86.0 °F 93.8 °F 73.9 °F 67% 29.95 in 10.0 mi Calm Calm - N/A   Mostly Cloudy
8:53 PM 82.9 °F 89.4 °F 73.9 °F 74% 29.96 in 10.0 mi South 9.2 mph - N/A   Mostly Cloudy
9:53 PM 82.0 °F 87.9 °F 73.9 °F 76% 29.98 in 10.0 mi South 4.6 mph - N/A   Scattered Clouds
10:53 PM 81.0 °F 86.2 °F 73.9 °F 79% 29.98 in 10.0 mi South 3.5 mph - N/A   Mostly Cloudy
11:53 PM 81.0 °F 85.8 °F 73.0 °F 77% 29.99 in 10.0 mi Calm Calm - N/A   Scattered Clouds